Time,TemperatureF,DewpointF,PressureIn,WindDirection,WindDirectionDegrees,WindSpeedMPH,WindSpeedGustMPH,Humidity,HourlyPrecipIn,Conditions,Clouds,dailyrainin,SoftwareType,DateUTC
2013-12-25 00:53:00,33.0,23.0,-100.00,SSE,168,2.0,3.0,66,-99.99,,,-99.99,,2013-12-25 08:53:00,
2013-12-25 01:02:00,33.0,23.0,-100.00,SSE,168,2.0,3.0,66,-99.99,,,-99.99,,2013-12-25 09:02:00,
2013-12-25 01:50:00,32.0,24.0,-100.00,SSE,151,1.0,2.0,72,-99.99,,,-99.99,,2013-12-25 09:50:00,
2013-12-25 02:22:00,32.0,24.0,-100.00,SSE,151,1.0,2.0,72,-99.99,,,-99.99,,2013-12-25 10:22:00,
2013-12-25 02:32:00,32.0,24.0,-100.00,SSE,151,1.0,2.0,72,-99.99,,,-99.99,,2013-12-25 10:32:00,
2013-12-25 02:43:00,32.0,24.0,-100.00,SSE,151,1.0,2.0,72,-99.99,,,-99.99,,2013-12-25 10:43:00,
2013-12-25 03:12:00,31.0,24.0,-100.00,SSE,158,1.0,2.0,74,-99.99,,,-99.99,,2013-12-25 11:12:00,
2013-12-25 03:22:00,31.0,24.0,-100.00,SSE,158,1.0,2.0,74,-99.99,,,-99.99,,2013-12-25 11:22:00,
2013-12-25 03:42:00,31.0,24.0,-100.00,SSE,157,1.0,2.0,75,-99.99,,,-99.99,,2013-12-25 11:42:00,
2013-12-25 04:52:00,31.0,24.0,-100.00,North,-999,0.0,1.0,75,-99.99,,,-99.99,,2013-12-25 12:52:00,
2013-12-25 05:12:00,30.0,23.0,-100.00,SSE,162,1.0,2.0,76,-99.99,,,-99.99,,2013-12-25 13:12:00,
2013-12-25 05:21:00,30.0,23.0,-100.00,SSE,164,1.0,1.0,76,-99.99,,,-99.99,,2013-12-25 13:21:00,
2013-12-25 05:32:00,30.0,23.0,-100.00,SSE,164,1.0,1.0,76,-99.99,,,-99.99,,2013-12-25 13:32:00,
2013-12-25 05:42:00,30.0,23.0,-100.00,SSE,164,1.0,1.0,76,-99.99,,,-99.99,,2013-12-25 13:42:00,
2013-12-25 08:23:00,29.0,23.0,-100.00,North,-999,0.0,1.0,77,-99.99,,,-99.99,,2013-12-25 16:23:00,
2013-12-25 08:33:00,29.0,23.0,-100.00,North,-999,0.0,1.0,77,-99.99,,,-99.99,,2013-12-25 16:33:00,
2013-12-25 09:12:00,29.0,23.0,-100.00,South,169,1.0,2.0,77,-99.99,,,-99.99,,2013-12-25 17:12:00,
2013-12-25 09:22:00,29.0,23.0,-100.00,South,169,1.0,2.0,77,-99.99,,,-99.99,,2013-12-25 17:22:00,
2013-12-25 09:42:00,30.0,23.0,-100.00,South,178,1.0,2.0,76,-99.99,,,-99.99,,2013-12-25 17:42:00,
2013-12-25 10:12:00,31.0,24.0,-100.00,SE,143,1.0,3.0,75,-99.99,,,-99.99,,2013-12-25 18:12:00,
2013-12-25 10:42:00,33.0,26.0,-100.00,North,-999,0.0,2.0,74,-99.99,,,-99.99,,2013-12-25 18:42:00,
2013-12-25 10:52:00,33.0,26.0,-100.00,North,-999,0.0,2.0,74,-99.99,,,-99.99,,2013-12-25 18:52:00,
2013-12-25 11:22:00,35.0,24.0,-100.00,SE,131,1.0,2.0,64,-99.99,,,-99.99,,2013-12-25 19:22:00,
2013-12-25 11:32:00,35.0,24.0,-100.00,SE,131,1.0,2.0,64,-99.99,,,-99.99,,2013-12-25 19:32:00,
2013-12-25 11:52:00,36.0,24.0,-100.00,North,-999,0.0,1.0,62,-99.99,,,-99.99,,2013-12-25 19:52:00,
2013-12-25 12:01:00,36.0,24.0,-100.00,North,-999,0.0,1.0,62,-99.99,,,-99.99,,2013-12-25 20:01:00,
2013-12-25 12:11:00,36.0,24.0,-100.00,North,-999,0.0,1.0,62,-99.99,,,-99.99,,2013-12-25 20:11:00,
2013-12-25 12:42:00,39.0,24.0,-100.00,North,-999,0.0,2.0,55,-99.99,,,-99.99,,2013-12-25 20:42:00,
2013-12-25 13:12:00,41.0,26.0,-100.00,SSE,165,1.0,2.0,54,-99.99,,,-99.99,,2013-12-25 21:12:00,
2013-12-25 13:22:00,41.0,26.0,-100.00,SSE,165,1.0,2.0,54,-99.99,,,-99.99,,2013-12-25 21:22:00,
2013-12-25 13:53:00,41.0,24.0,-100.00,North,-999,0.0,1.0,51,-99.99,,,-99.99,,2013-12-25 21:53:00,
2013-12-25 14:03:00,41.0,24.0,-100.00,North,-999,0.0,1.0,51,-99.99,,,-99.99,,2013-12-25 22:03:00,
2013-12-25 14:13:00,41.0,24.0,-100.00,North,-999,0.0,1.0,51,-99.99,,,-99.99,,2013-12-25 22:13:00,
2013-12-25 14:23:00,41.0,27.0,-100.00,SW,233,1.0,2.0,56,-99.99,,,-99.99,,2013-12-25 22:23:00,
2013-12-25 14:33:00,41.0,27.0,-100.00,SW,233,1.0,2.0,56,-99.99,,,-99.99,,2013-12-25 22:33:00,
2013-12-25 14:42:00,41.0,27.0,-100.00,SW,233,1.0,2.0,56,-99.99,,,-99.99,,2013-12-25 22:42:00,
2013-12-25 14:52:00,40.0,24.0,-100.00,North,-999,0.0,1.0,53,-99.99,,,-99.99,,2013-12-25 22:52:00,
2013-12-25 15:12:00,41.0,26.0,-100.00,North,-999,0.0,2.0,54,-99.99,,,-99.99,,2013-12-25 23:12:00,
2013-12-25 15:22:00,41.0,26.0,-100.00,North,-999,0.0,2.0,54,-99.99,,,-99.99,,2013-12-25 23:22:00,
2013-12-25 15:33:00,41.0,26.0,-100.00,North,-999,0.0,2.0,54,-99.99,,,-99.99,,2013-12-25 23:33:00,
2013-12-25 16:11:00,39.0,24.0,-100.00,South,181,1.0,2.0,54,-99.99,,,-99.99,,2013-12-26 00:11:00,
2013-12-25 16:21:00,40.0,19.0,-100.00,South,175,2.0,3.0,42,-99.99,,,-99.99,,2013-12-26 00:21:00,
2013-12-25 16:42:00,40.0,23.0,-100.00,South,172,2.0,3.0,50,-99.99,,,-99.99,,2013-12-26 00:42:00,
2013-12-25 16:52:00,40.0,19.0,-100.00,South,175,2.0,3.0,42,-99.99,,,-99.99,,2013-12-26 00:52:00,
2013-12-25 17:01:00,40.0,19.0,-100.00,South,175,2.0,3.0,42,-99.99,,,-99.99,,2013-12-26 01:01:00,
2013-12-25 17:12:00,40.0,19.0,-100.00,South,175,2.0,3.0,42,-99.99,,,-99.99,,2013-12-26 01:12:00,
2013-12-25 17:52:00,38.0,19.0,-100.00,SSE,165,2.0,3.0,45,-99.99,,,-99.99,,2013-12-26 01:52:00,
2013-12-25 18:21:00,37.0,12.0,-100.00,SE,136,1.0,2.0,35,-99.99,,,-99.99,,2013-12-26 02:21:00,
2013-12-25 19:11:00,38.0,16.0,-100.00,SSE,167,2.0,3.0,40,-99.99,,,-99.99,,2013-12-26 03:11:00,
2013-12-25 19:43:00,37.0,19.0,-100.00,South,171,2.0,3.0,48,-99.99,,,-99.99,,2013-12-26 03:43:00,
2013-12-25 19:53:00,36.0,19.0,-100.00,SSE,154,1.0,2.0,50,-99.99,,,-99.99,,2013-12-26 03:53:00,
2013-12-25 20:03:00,36.0,19.0,-100.00,SSE,154,1.0,2.0,50,-99.99,,,-99.99,,2013-12-26 04:03:00,
2013-12-25 20:13:00,36.0,19.0,-100.00,SSE,154,1.0,2.0,50,-99.99,,,-99.99,,2013-12-26 04:13:00,
2013-12-25 20:23:00,37.0,20.0,-100.00,SSE,164,2.0,2.0,50,-99.99,,,-99.99,,2013-12-26 04:23:00,
2013-12-25 20:43:00,35.0,17.0,-100.00,SSE,158,1.0,1.0,47,-99.99,,,-99.99,,2013-12-26 04:43:00,
2013-12-25 20:52:00,35.0,17.0,-100.00,SSE,158,1.0,1.0,47,-99.99,,,-99.99,,2013-12-26 04:52:00,
2013-12-25 21:12:00,35.0,18.0,-100.00,South,171,2.0,3.0,50,-99.99,,,-99.99,,2013-12-26 05:12:00,
2013-12-25 21:22:00,35.0,18.0,-100.00,South,171,2.0,3.0,50,-99.99,,,-99.99,,2013-12-26 05:22:00,
2013-12-25 21:43:00,35.0,23.0,-100.00,SSE,161,1.0,2.0,60,-99.99,,,-99.99,,2013-12-26 05:43:00,
2013-12-25 22:12:00,34.0,22.0,-100.00,SE,145,1.0,1.0,61,-99.99,,,-99.99,,2013-12-26 06:12:00,
2013-12-25 22:42:00,33.0,22.0,-100.00,SSE,161,1.0,1.0,63,-99.99,,,-99.99,,2013-12-26 06:42:00,
2013-12-25 22:52:00,32.0,22.0,-100.00,SSE,164,1.0,2.0,65,-99.99,,,-99.99,,2013-12-26 06:52:00,
2013-12-25 23:01:00,32.0,22.0,-100.00,SSE,164,1.0,2.0,65,-99.99,,,-99.99,,2013-12-26 07:01:00,
2013-12-25 23:11:00,32.0,22.0,-100.00,SSE,164,1.0,2.0,65,-99.99,,,-99.99,,2013-12-26 07:11:00,
2013-12-25 23:21:00,32.0,21.0,-100.00,SSE,155,1.0,2.0,64,-99.99,,,-99.99,,2013-12-26 07:21:00,
2013-12-25 23:32:00,32.0,21.0,-100.00,SSE,155,1.0,2.0,64,-99.99,,,-99.99,,2013-12-26 07:32:00,
2013-12-25 23:42:00,32.0,21.0,-100.00,SSE,155,1.0,2.0,64,-99.99,,,-99.99,,2013-12-26 07:42:00,